Regional Weather Roundup
Issued by NWS

Home | Current Version | Previous Version | Text Only | Print | Product List | Glossary Off
Versions: 1 2 3 4 5 6 7 8 9 10 11 12 13 14 15 16 17 18 19 20 21 22 23 24 25 26 27 28 29 30 31 32 33 34 35 36 37 38 39 40 41 42 43 44 45 46 47 48 49 50

000
ASUS43 KFSD 230102
RWRSD

WEATHER ROUNDUP FOR SOUTH DAKOTA
NATIONAL WEATHER SERVICE SIOUX FALLS SD
800 PM CDT MON SEP 22 2014

NOTE: "FAIR" INDICATES FEW OR NO CLOUDS BELOW 12,000 FEET WITH NO
SIGNIFICANT WEATHER AND/OR OBSTRUCTIONS TO VISIBILITY.


SDZ001>005-009-010-012>017-230200-
NORTHWEST AND NORTH CENTRAL SOUTH DAKOTA

CITY           SKY/WX    TMP DP  RH WIND       PRES   REMARKS
FAITH            N/A     68  52  56 S15       29.91S
MOBRIDGE       CLEAR     72  52  49 S12       29.94R
$$

SDZ012>016-024>037-041>051-057-063-072>074-230200-
SOUTHWEST AND SOUTH CENTRAL SOUTH DAKOTA

CITY           SKY/WX    TMP DP  RH WIND       PRES   REMARKS
RAPID CTY ARPT LGT RAIN  70  51  51 SW13      29.92R
PIERRE         MOCLDY    69  50  50 S20G31    29.99R
CUSTER         LGT RAIN  56  52  86 W6        30.08F
ELLSWORTH AFB  CLOUDY    71  51  49 SW6       29.91R
PHILIP         CLOUDY    69  53  56 S8        29.93F
PINE RIDGE     CLOUDY    66  54  65 S10G18    29.99S
WINNER         FAIR      66  52  60 S23G30    30.05S
$$

SDZ004>011-016>023-039-040-230200-
NORTHEAST SOUTH DAKOTA

CITY           SKY/WX    TMP DP  RH WIND       PRES   REMARKS
ABERDEEN       CLEAR     63  48  58 SE9       30.03F
WATERTOWN      CLEAR     61  48  62 S8        30.10S
SISSETON         N/A     59  50  72 S8        30.07S
$$

SDZ017-020-022-023-036>040-048>070-230200-
SOUTHEAST SOUTH DAKOTA

CITY           SKY/WX    TMP DP  RH WIND       PRES   REMARKS
SIOUX FALLS    MOCLDY    66  49  54 S10       30.13S
HURON          PTCLDY    68  48  48 S9        30.06R
CHAMBERLAIN    CLOUDY    66  50  57 S8        30.05R
MITCHELL       MOCLDY    68  50  52 SE14      30.08F
YANKTON        CLOUDY    64  52  63 SE9       30.13R
$$

ABBREVIATIONS USED IN REMARKS
   TC - TEMPERATURE IN CELSIUS
  WCI - WIND CHILL INDEX
   HX - HEAT INDEX
  VSB - VISIBILITY



USA.gov is the U.S. government's official web portal to all federal, state and local government web resources and services.